Weather History for KBIV - January, 2014

Change the Weather History Date:

Friday, January 17, 2014

  Actual Average Record
Temperature  
Mean Temperature 24 °F 26 °F  
Max Temperature 30 °F 32 °F 57 °F (1952)
Min Temperature 17 °F 20 °F -8 °F (1982)
Degree Days  
Heating Degree Days 41 39  
Month to date heating degree days 738 654  
Since 1 July heating degree days 3154 2922  
Cooling Degree Days 0 0  
Month to date cooling degree days 0 0  
Year to date cooling degree days 0 0  
Moisture  
Dew Point 18 °F    
Average Humidity 82    
Maximum Humidity 92    
Minimum Humidity 71    
Precipitation  
Precipitation 0.01 in 0.07 in 0.75 in (1969)
Month to date precipitation 1.47 1.15  
Year to date precipitation 1.47 1.15  
Sea Level Pressure  
Sea Level Pressure 29.78 in    
Wind  
Wind Speed 11 mph (WSW)    
Max Wind Speed 21 mph    
Max Gust Speed 28 mph    
Visibility 8 miles    
Events Snow    
T = Trace of Precipitation, MM = Missing Value Source: NWS Daily Summary

Daily Weather History Graph

Daily Weather History Graph

Search for Another Location

Airport or City:

Trip Planner

Search our weather history database for the weather conditions in past years. The results will help you decide how hot, cold, wet, or windy it might be!

Date:

Astronomy

Jan. 17, 2014 Rise Set
Actual Time 8:11 AM EST 5:38 PM EST
Civil Twilight 7:39 AM EST 6:09 PM EST
Nautical Twilight 7:05 AM EST 6:44 PM EST
Astronomical Twilight 6:31 AM EST 7:18 PM EST
Moon 7:27 PM EST (1/17) 8:35 AM EST (1/17)
Length of Visible Light 10h 29m
Length of Day
9h 27m
Full, 98% of the Moon is Illuminated
Jan 17
Full
Jan 24
Last Quarter
Jan 30
New
Feb 6
First Quarter
Feb 14
Full

Hourly Weather History & Observations

Time (EST) Temp. Windchill Dew Point Humidity Pressure Visibility Wind Dir Wind Speed Gust Speed Precip Events Conditions
12:09 AM 30.0 °F 19.1 °F 27.0 °F 88% 29.58 in 3.0 mi West 15.0 mph 25.3 mph 0.00 in Snow Light Snow
12:26 AM 28.9 °F 15.8 °F 25.0 °F 85% 29.59 in 2.5 mi West 20.7 mph 28.8 mph 0.00 in Snow Light Snow
12:35 AM 28.9 °F 18.2 °F 25.0 °F 85% 29.59 in 5.0 mi West 13.8 mph 24.2 mph 0.00 in Snow Light Snow
12:53 AM 28.9 °F 17.7 °F 23.0 °F 78% 29.63 in 7.0 mi West 15.0 mph 24.2 mph 0.00 in Snow Light Snow
1:00 AM 28.9 °F 17.7 °F 23.0 °F 78% 29.60 in 4.0 mi West 15.0 mph 20.7 mph 0.00 in Snow Light Snow
1:53 AM 28.0 °F 19.3 °F 21.9 °F 78% 29.65 in 6.0 mi West 9.2 mph - 0.01 in Snow Light Snow
2:53 AM 27.0 °F 17.3 °F 21.0 °F 78% 29.67 in 10.0 mi WNW 10.4 mph 20.7 mph 0.00 in   Overcast
3:53 AM 26.1 °F 16.2 °F 19.9 °F 78% 29.70 in 10.0 mi West 10.4 mph - N/A   Overcast
4:53 AM 25.0 °F 14.2 °F 19.0 °F 78% 29.71 in 10.0 mi West 11.5 mph - N/A   Overcast
5:53 AM 23.0 °F 12.4 °F 18.0 °F 81% 29.74 in 10.0 mi West 10.4 mph - N/A   Overcast
6:30 AM 23.0 °F 13.1 °F 17.1 °F 78% 29.72 in 10.0 mi West 9.2 mph - N/A   Overcast
6:53 AM 21.9 °F 11.7 °F 17.1 °F 82% 29.76 in 10.0 mi West 9.2 mph - N/A   Overcast
7:14 AM 21.9 °F 12.5 °F 17.1 °F 82% 29.73 in 10.0 mi West 8.1 mph - N/A   Overcast
7:26 AM 21.9 °F 11.7 °F 17.1 °F 82% 29.74 in 10.0 mi West 9.2 mph - N/A   Overcast
8:53 AM 21.9 °F 11.0 °F 16.0 °F 78% 29.80 in 10.0 mi West 10.4 mph - N/A   Overcast
9:53 AM 21.9 °F 11.0 °F 16.0 °F 78% 29.81 in 9.0 mi West 10.4 mph - 0.00 in   Overcast
10:53 AM 21.9 °F 11.0 °F 15.1 °F 75% 29.83 in 10.0 mi West 10.4 mph - N/A   Overcast
11:53 AM 21.0 °F 8.6 °F 15.1 °F 78% 29.84 in 10.0 mi WSW 12.7 mph - N/A   Overcast
12:53 PM 21.0 °F 9.3 °F 15.1 °F 78% 29.84 in 5.0 mi WSW 11.5 mph - 0.00 in Snow Light Snow
1:53 PM 19.9 °F 7.3 °F 14.0 °F 78% 29.84 in 7.0 mi WSW 12.7 mph - 0.00 in Snow Light Snow
2:53 PM 21.0 °F 9.3 °F 14.0 °F 74% 29.85 in 5.0 mi WSW 11.5 mph - 0.00 in Snow Light Snow
3:53 PM 21.0 °F 9.3 °F 15.1 °F 78% 29.87 in 8.0 mi WSW 11.5 mph - 0.00 in Snow Light Snow
4:53 PM 21.0 °F 9.3 °F 15.1 °F 78% 29.89 in 9.0 mi SW 11.5 mph - 0.00 in Snow Light Snow
5:53 PM 21.0 °F 10.6 °F 14.0 °F 74% 29.91 in 10.0 mi SW 9.2 mph - 0.00 in   Overcast
6:53 PM 21.0 °F 9.3 °F 14.0 °F 74% 29.93 in 10.0 mi SW 11.5 mph - 0.00 in   Overcast
7:53 PM 21.0 °F 9.3 °F 14.0 °F 74% 29.93 in 10.0 mi SW 11.5 mph - 0.00 in   Overcast
8:53 PM 21.0 °F 9.3 °F 15.1 °F 78% 29.93 in 10.0 mi WSW 11.5 mph - 0.00 in   Overcast
9:53 PM 21.9 °F 13.4 °F 15.1 °F 75% 29.94 in 10.0 mi SW 6.9 mph - 0.00 in   Overcast
10:53 PM 19.9 °F 10.1 °F 15.1 °F 81% 29.92 in 7.0 mi South 8.1 mph - 0.00 in Snow Light Snow
11:53 PM 17.1 °F 3.0 °F 12.9 °F 84% 29.90 in 6.0 mi South 13.8 mph - 0.00 in Snow Light Snow